SCP
0 0 -0 -0 -0 -0 -0 -0 -0 -0 -0 -0 -0 -0 -0 -0 -0 -0 -0 -0 -0 -0 -0 -0 0 0 0 0 0 0 0 0 0 0 0 0 0 0 0 0 0 0 0
-0 -0 -0 -0 -0 -0 -0 -0 -0 -0 -0 -0 -0 -0 -0 -0 -0 -0 -0 -0 -0 -0 -0 -0 -0 -0 0 0 0 0 0 0 0 0 0 0 0 0 0 0 0 0 0
-0 -0 -0 -0 -0 -0 -0 -0 -0 -0 -0 -0 -0 -0 -0 -0 -0 -0 -0 -0 -0 -0 -0 -0 -0 -0 -0 0 0 0 0 0 0 0 0 0 0 0 0 0 0 0 0
-0 -0 -0 -0 -0 -0 -0 -0 -0 -0 -0 -0 -0 -0 -0 -0 -0 -0 -0 -0 -0 -0 -0 -0 -0 -0 0 0 0 0 0 0 0 0 0 0 0 0 0 0 0 0 0
-0 -0 -0 -0 -0 -0 -0 -0 -0 -0 -0 -0 -0 -0 -0 -0 -0 -0 -0 -0 -0 -0 -0 -0 -0 -0 0 0 0 0 0 0 0 0 0 0 0 0 0 0 0 0 0
-0 -0 -0 -0 -0 -0 -0 -0 -0 -0 -0 -0 -0 -0 -0 -0 -0 -0 -0 -0 -0 -0 -0 0 0 0 0 0 0 0 0 0 0 0 0 0 0 0 0 0 0 0 0
0 0 -0 -0 -0 -0 -0 -0 -0 -0 -0 -0 -0 -0 -0 -0 -0 -0 0 0 0 0 0 0 0 0 0 0 0 0 0 0 0 0 0 0 0 0 0 0 0 -0 0
0 0 0 -0 -0 -0 -0 -0 -0 -0 -0 -0 -0 -0 -0 -0 -0 0 0 0 0 0 0 0 0 0 0 0 0 0 0 0 0 0 0 0 0 0 0 0 0 0 0
0 0 0 0 0 -0 -0 -0 -0 -0 -0 -0 -0 -0 -0 0 0 0 0 0 0 0 0 0 0 0 0 0 0 0 0 0 0 0 0 0 0 0 0 0 0 0 0
0 0 0 -0 -0 -0 0 0 -0 -0 -0 -0 -0 -0 -0 0 0 0 0 0 0 0 0 0 0 0 0 0 0 0 0 0 0 0 0 0 0 0 0 0 0 0 0
0 0 -0 -0 -0 0 0 0 0 0 -0 -0 -0 -0 0 0 0 0 0 0 0 0 0 0 0 0 0 0 0 0 0 0 0 0 0 0 0 0 0 0 0 0 0
0 0 0 0 0 0 0 0 0 0 0 0 0 0 0 0 0 0 0 0 0 0 0 0 0 0 0 0 0 0 0 0 0 0 0 0 0 0 0 0 0 0 0
0 0 0 0 0 0 0 0 0 0 0 0 0 0 0 0 0 0 0 0 0 0 0 0 0 0 0 0 0 0 0 0 0 0 0 0 0 0 0 0 0 0 0
0 0 0 0 0 0 0 0 0 0 0 0 0 0 0 0 0 0 0 0 0 0 0 0 0 0 0 0 0 0 0 0 0 0 0 0 0 0 0 0 0 0 0
0 0 0 0 0 0 0 0 0 0 0 0 0 0 0 0 0 0 0 0 0 0 0 0 0 0 0 0 0 0 0 0 0 0 0 0 0 0 0 0 0 0 0
0 0 0 0 0 0 0 0 0 0 0 0 0 0 0 0 0 0 0 0 0 0 0 0 0 0 0 0 0 0 0 0 0 0 0 0 0 0 0 0 0 0 0
0 0 0 0 0 0 0 0 0 0 0 0 0 0 0 0 0 0 0 0 0 0 0 0 0 0 0 0 0 0 0 0 0 0 0 0 0 0 0 0 -0 0 0
0 0 0 0 0 0 0 0 0 0 0 0 0 0 0 0 0 0 0 0 0 0 0 0 0 0 0 0 0 0 0 0 0 0 0 0 0 0 0 0 0 0 -0
0 0 0 0 0 0 0 0 0 0 0 0 0 0 0 0 0 0 0 0 0 0 0 0 0 0 0 0 0 0 0 0 0 0 0 0 0 0 0 0 0 0 0
0 0 0 0 0 0 0 0 0 0 0 0 0 0 0 0 0 0 0 0 0 0 0 0 0 0 0 0 0 0 0 0 0 0 0 0 0 0 0 0 0 0 0
0 0 0 0 0 0 0 0 0 0 0 0 0 0 0 0 0 0 0 0 0 0 0 0 0 0 0 0 0 0 0 0 0 0 0 0 0 0 0 0 0 0 0
0 0 0 0 0 0 0 0 0 0 0 0 0 0 0 0 0 0 0 0 0 0 0 0 0 0 0 0 0 0 0 0 0 0 0 0 0 0 0 0 0 0 0
0 0 0 0 0 0 0 0 0 0 0 0 0 0 0 0 0 0 0 0 0 0 0 0 0 0 0 0 0 0 0 0 0 0 0 0 0 0 0 0 0 0 0
0 0 0 0 0 0 0 0 0 0 0 0 0 0 0 0 0 0 0 0 0 0 0 0 0 0 0 0 0 0 0 0 0 0 0 0 0 0 0 0 0 0 0
0 0 0 0 0 0 0 0 0 0 0 0 0 0 0 0 0 0 0 0 0 0 0 0 0 0 0 0 0 0 0 0 0 0 0 0 0 0 0 0 0 0 0
0 0 0 0 0 0 0 0 0 0 0 0 0 0 0 0 0 0 0 0 0 0 0 0 0 0 0 0 0 0 0 0 0 0 0 0 0 0 0 0 0 0 0
Wind_Speed_500mb
27 23 19 14 13 16 20 23 22 20 21 23 25 28 29 30 31 31 29 25 24 25 25 27 28 29 29 28 28 28 28 27 25 22 23 24 23 27 26 32 32 32 35
27 26 16 17 12 14 18 22 22 20 20 22 25 28 30 31 31 31 28 25 23 25 26 29 29 30 30 29 31 30 29 26 26 27 32 29 27 26 34 38 40 40 38
24 24 22 19 10 12 16 21 21 21 22 22 24 26 28 30 31 31 28 23 24 26 29 29 30 28 29 27 26 28 28 27 27 29 31 34 34 37 46 45 39 36 36
17 26 26 20 10 8 13 21 17 19 19 21 24 26 28 29 29 29 26 23 26 28 27 28 32 32 33 30 31 29 29 27 24 27 32 37 35 39 39 37 40 43 46
22 20 20 14 7 9 14 20 17 19 20 24 27 30 32 31 29 26 25 25 29 27 28 30 34 33 31 32 32 30 27 23 23 25 35 39 32 41 37 35 39 41 42
21 13 12 10 4 10 18 18 18 18 20 24 28 29 30 30 27 25 25 26 26 28 30 31 33 32 30 31 31 28 23 23 23 30 37 38 34 40 36 40 43 42 36
18 15 12 7 2 8 16 17 17 18 21 25 28 29 28 26 23 23 23 25 26 29 29 30 31 31 30 28 25 21 23 25 31 34 35 36 45 38 40 41 44 45 44
13 13 9 3 3 8 14 15 15 17 21 23 25 26 25 21 21 21 21 22 23 24 26 29 29 29 30 28 27 24 24 27 34 35 37 50 48 41 39 43 47 47 50
16 12 5 2 6 8 12 9 10 13 17 20 22 23 21 18 18 18 17 17 17 20 24 27 27 30 31 30 28 25 24 27 35 38 47 49 43 40 43 44 50 49 49
15 11 3 4 8 10 5 7 9 13 16 19 21 22 23 19 16 12 10 12 12 14 19 25 24 27 29 30 28 24 26 42 51 50 50 52 45 42 44 46 53 52 52
15 7 3 7 5 3 3 7 11 14 16 19 19 20 19 16 14 12 8 6 7 11 18 22 22 23 28 31 29 25 39 48 51 50 54 47 43 45 41 48 54 59 55
15 10 5 8 6 3 5 9 12 15 17 19 19 17 17 16 14 10 10 7 9 11 16 20 23 23 25 31 35 36 42 48 49 49 56 49 45 48 47 51 51 53 54
14 9 5 9 7 4 4 8 11 14 17 18 17 17 16 14 13 8 5 6 11 13 17 18 23 25 27 31 35 40 47 50 46 42 40 50 41 47 51 49 47 53 46
16 12 8 8 7 7 3 6 10 13 16 17 17 15 11 10 8 7 4 8 15 15 18 17 21 27 30 34 36 42 46 44 44 41 33 33 41 32 44 41 47 48 44
21 17 12 11 10 9 7 9 10 13 16 18 17 13 9 8 10 11 14 14 14 14 18 17 21 30 31 33 36 33 35 38 40 45 45 33 34 37 42 57 50 49 53
27 23 19 18 14 14 12 13 12 13 15 16 16 11 8 10 12 15 15 16 12 15 16 19 20 28 32 28 32 29 29 38 39 37 36 40 41 41 39 43 53 50 61
31 29 28 24 20 16 16 17 13 13 15 16 18 9 8 9 11 13 13 13 12 13 12 18 24 27 30 26 27 27 24 29 32 31 34 34 39 35 34 35 39 49 60
42 40 35 31 26 21 21 21 18 16 17 18 15 5 4 6 7 8 8 6 9 8 11 17 30 33 31 27 28 26 19 26 21 26 26 30 36 40 38 35 33 40 56
44 44 42 34 30 27 27 23 22 20 20 19 10 5 1 3 3 2 1 2 4 2 6 17 31 35 34 29 27 22 22 24 20 19 28 33 34 40 40 39 39 39 43
45 46 45 37 34 32 30 26 25 22 22 14 8 5 3 3 1 2 2 4 2 3 7 12 26 39 39 36 34 32 28 25 19 18 23 28 42 41 43 43 44 48 43
41 41 44 43 38 38 35 32 28 23 19 14 10 9 7 7 9 7 6 6 2 6 8 11 24 45 44 43 38 38 37 26 22 21 19 21 34 44 43 45 49 53 52
38 43 48 46 41 39 38 31 24 26 23 18 13 12 9 11 11 9 6 4 3 8 11 17 20 45 46 48 40 32 24 32 27 20 13 14 29 38 42 44 48 52 54
44 45 46 47 45 43 40 34 33 33 30 25 19 17 14 13 11 8 7 5 4 7 13 19 22 39 46 49 42 26 17 14 29 15 10 18 27 37 41 44 48 52 53
48 45 44 46 45 44 43 42 40 35 33 28 24 22 19 15 13 11 9 6 4 7 9 13 19 22 26 38 48 43 31 33 14 18 16 19 29 36 37 39 43 47 51
48 46 45 46 45 45 47 43 37 34 27 28 27 26 22 18 16 14 12 11 9 8 9 12 14 16 17 19 21 22 26 43 29 24 26 19 18 28 30 32 39 43 46
50 51 51 47 46 47 45 41 40 37 36 37 31 29 24 22 18 15 14 13 11 9 10 12 12 12 13 15 19 19 23 29 31 31 31 25 14 15 21 28 36 42 44
Wind_Direction_500mb
152 144 156 99 96 67 47 43 38 30 23 18 15 13 10 7 6 5 0 2 14 31 22 24 24 23 24 24 23 25 35 41 44 40 31 23 14 13 356 348 338 338 331
154 153 155 133 111 61 36 30 26 28 22 20 17 14 11 7 6 3 3 7 36 40 35 33 29 26 27 26 30 38 36 38 33 30 30 21 14 5 6 7 3 353 348
162 162 152 149 122 50 24 27 24 25 15 16 17 16 14 10 8 4 5 21 41 46 44 35 30 27 27 26 31 44 47 46 36 37 36 21 23 33 14 2 353 347 343
177 159 153 149 110 47 10 19 26 25 15 14 13 12 14 12 12 10 14 26 50 52 48 43 34 31 35 45 52 51 51 42 38 44 31 23 35 41 16 2 6 1 353
147 152 152 136 115 356 23 14 22 24 14 14 10 10 9 12 13 20 31 48 63 58 50 44 41 46 52 55 56 57 54 42 35 39 30 24 33 40 17 4 358 352 347
139 148 146 145 82 6 11 13 13 19 15 16 10 8 10 13 22 41 46 62 64 57 52 51 50 51 55 58 55 57 53 36 26 36 27 30 34 32 20 11 2 357 351
156 164 166 162 33 7 355 2 11 10 17 12 7 5 11 18 32 51 66 68 67 64 58 48 48 49 56 58 61 61 47 34 30 33 39 37 36 29 18 16 14 13 13
174 166 166 177 337 342 344 356 12 9 12 8 5 4 9 26 48 67 75 74 68 66 64 50 59 54 53 53 55 51 47 36 36 48 49 43 37 27 25 22 20 22 23
173 166 186 254 328 324 320 351 4 8 9 1 1 359 10 33 63 83 87 81 73 68 61 61 59 56 53 53 48 46 46 42 52 61 52 51 41 34 29 30 29 29 30
167 168 182 303 293 303 328 355 356 1 3 355 358 356 357 16 23 49 73 88 82 72 68 65 64 61 52 52 51 57 64 56 59 55 57 52 43 44 40 41 38 38 42
181 193 241 298 298 318 351 345 353 3 4 350 355 357 4 13 10 20 28 73 96 81 73 70 70 70 58 58 61 63 64 64 65 66 61 55 54 55 45 47 48 49 47
194 200 233 294 317 307 354 352 360 3 354 354 352 356 356 358 357 353 17 70 122 95 83 78 77 85 66 63 65 66 70 69 72 73 68 65 60 55 50 50 48 48 51
197 204 225 291 284 309 351 353 351 356 349 348 349 349 350 353 359 354 6 89 129 102 99 95 89 89 76 73 72 69 79 75 73 77 75 65 67 62 51 49 47 51 49
204 210 223 253 258 263 300 329 333 345 339 342 344 348 351 2 19 30 54 96 116 109 104 104 94 93 91 83 80 79 80 76 73 75 77 67 60 53 52 57 52 50 46
211 212 221 237 270 272 287 298 312 326 331 337 342 338 344 4 27 46 43 60 114 119 113 113 105 104 100 90 85 84 80 80 80 78 75 61 54 55 66 59 54 65 46
220 224 225 229 247 271 279 285 299 314 319 328 334 328 358 32 44 49 50 48 82 125 125 129 122 116 108 97 93 84 80 81 74 64 59 55 52 56 56 64 57 66 49
229 232 230 234 238 254 271 281 285 295 303 316 320 331 17 53 57 60 56 46 61 80 123 144 139 131 121 111 102 88 83 83 73 68 53 44 43 49 52 54 57 59 52
226 228 231 233 240 249 255 272 277 279 286 298 297 326 51 70 74 72 68 52 48 80 100 148 152 141 133 126 111 99 97 101 97 74 60 50 44 49 52 53 56 62 54
228 225 224 231 240 244 254 262 270 266 271 286 274 272 153 134 125 167 207 359 1 146 145 136 160 151 146 141 128 112 106 115 108 79 63 49 49 51 54 57 57 60 61
228 222 220 227 233 240 245 252 262 260 269 267 251 248 248 241 273 283 301 304 273 208 198 149 162 160 158 149 134 113 110 115 109 89 64 55 50 52 54 55 57 55 56
219 215 209 220 225 234 238 241 254 268 275 268 245 241 226 228 247 264 263 269 239 187 185 164 161 169 163 161 149 115 100 109 111 92 66 50 46 49 53 57 58 57 52
221 211 207 213 219 232 239 245 252 254 257 250 244 246 242 256 263 263 257 236 207 151 150 143 147 169 168 172 162 150 110 96 104 91 60 46 46 52 58 58 61 60 55
217 212 210 212 214 224 231 237 240 242 249 252 242 242 245 251 256 254 236 225 186 148 151 143 139 173 176 186 192 184 171 153 120 96 91 71 60 58 59 58 58 56 53
217 214 213 214 218 223 229 233 238 243 259 250 242 247 247 248 250 244 238 229 193 161 163 152 152 165 175 200 204 214 218 183 164 143 124 88 67 60 55 56 53 53 50
220 220 218 219 221 224 230 239 232 236 234 238 241 243 245 249 246 233 226 212 198 183 174 157 152 158 171 183 173 158 163 176 179 165 158 128 90 71 57 59 58 55 53
224 223 223 221 222 225 231 231 228 226 230 236 243 238 244 247 237 226 221 214 209 196 180 160 157 159 157 158 155 152 148 162 179 176 162 153 133 96 61 54 56 52 47
Wind_Speed_850mb
27 23 19 14 13 16 20 23 22 20 21 23 25 28 29 30 31 31 29 25 24 25 25 27 28 29 29 28 28 28 28 27 25 22 23 24 23 27 26 32 32 32 35
27 26 16 17 12 14 18 22 22 20 20 22 25 28 30 31 31 31 28 25 23 25 26 29 29 30 30 29 31 30 29 26 26 27 32 29 27 26 34 38 40 40 38
24 24 22 19 10 12 16 21 21 21 22 22 24 26 28 30 31 31 28 23 24 26 29 29 30 28 29 27 26 28 28 27 27 29 31 34 34 37 46 45 39 36 36
17 26 26 20 10 8 13 21 17 19 19 21 24 26 28 29 29 29 26 23 26 28 27 28 32 32 33 30 31 29 29 27 24 27 32 37 35 39 39 37 40 43 46
22 20 20 14 7 9 14 20 17 19 20 24 27 30 32 31 29 26 25 25 29 27 28 30 34 33 31 32 32 30 27 23 23 25 35 39 32 41 37 35 39 41 42
21 13 12 10 4 10 18 18 18 18 20 24 28 29 30 30 27 25 25 26 26 28 30 31 33 32 30 31 31 28 23 23 23 30 37 38 34 40 36 40 43 42 36
18 15 12 7 2 8 16 17 17 18 21 25 28 29 28 26 23 23 23 25 26 29 29 30 31 31 30 28 25 21 23 25 31 34 35 36 45 38 40 41 44 45 44
13 13 9 3 3 8 14 15 15 17 21 23 25 26 25 21 21 21 21 22 23 24 26 29 29 29 30 28 27 24 24 27 34 35 37 50 48 41 39 43 47 47 50
16 12 5 2 6 8 12 9 10 13 17 20 22 23 21 18 18 18 17 17 17 20 24 27 27 30 31 30 28 25 24 27 35 38 47 49 43 40 43 44 50 49 49
15 11 3 4 8 10 5 7 9 13 16 19 21 22 23 19 16 12 10 12 12 14 19 25 24 27 29 30 28 24 26 42 51 50 50 52 45 42 44 46 53 52 52
15 7 3 7 5 3 3 7 11 14 16 19 19 20 19 16 14 12 8 6 7 11 18 22 22 23 28 31 29 25 39 48 51 50 54 47 43 45 41 48 54 59 55
15 10 5 8 6 3 5 9 12 15 17 19 19 17 17 16 14 10 10 7 9 11 16 20 23 23 25 31 35 36 42 48 49 49 56 49 45 48 47 51 51 53 54
14 9 5 9 7 4 4 8 11 14 17 18 17 17 16 14 13 8 5 6 11 13 17 18 23 25 27 31 35 40 47 50 46 42 40 50 41 47 51 49 47 53 46
16 12 8 8 7 7 3 6 10 13 16 17 17 15 11 10 8 7 4 8 15 15 18 17 21 27 30 34 36 42 46 44 44 41 33 33 41 32 44 41 47 48 44
21 17 12 11 10 9 7 9 10 13 16 18 17 13 9 8 10 11 14 14 14 14 18 17 21 30 31 33 36 33 35 38 40 45 45 33 34 37 42 57 50 49 53
27 23 19 18 14 14 12 13 12 13 15 16 16 11 8 10 12 15 15 16 12 15 16 19 20 28 32 28 32 29 29 38 39 37 36 40 41 41 39 43 53 50 61
31 29 28 24 20 16 16 17 13 13 15 16 18 9 8 9 11 13 13 13 12 13 12 18 24 27 30 26 27 27 24 29 32 31 34 34 39 35 34 35 39 49 60
42 40 35 31 26 21 21 21 18 16 17 18 15 5 4 6 7 8 8 6 9 8 11 17 30 33 31 27 28 26 19 26 21 26 26 30 36 40 38 35 33 40 56
44 44 42 34 30 27 27 23 22 20 20 19 10 5 1 3 3 2 1 2 4 2 6 17 31 35 34 29 27 22 22 24 20 19 28 33 34 40 40 39 39 39 43
45 46 45 37 34 32 30 26 25 22 22 14 8 5 3 3 1 2 2 4 2 3 7 12 26 39 39 36 34 32 28 25 19 18 23 28 42 41 43 43 44 48 43
41 41 44 43 38 38 35 32 28 23 19 14 10 9 7 7 9 7 6 6 2 6 8 11 24 45 44 43 38 38 37 26 22 21 19 21 34 44 43 45 49 53 52
38 43 48 46 41 39 38 31 24 26 23 18 13 12 9 11 11 9 6 4 3 8 11 17 20 45 46 48 40 32 24 32 27 20 13 14 29 38 42 44 48 52 54
44 45 46 47 45 43 40 34 33 33 30 25 19 17 14 13 11 8 7 5 4 7 13 19 22 39 46 49 42 26 17 14 29 15 10 18 27 37 41 44 48 52 53
48 45 44 46 45 44 43 42 40 35 33 28 24 22 19 15 13 11 9 6 4 7 9 13 19 22 26 38 48 43 31 33 14 18 16 19 29 36 37 39 43 47 51
48 46 45 46 45 45 47 43 37 34 27 28 27 26 22 18 16 14 12 11 9 8 9 12 14 16 17 19 21 22 26 43 29 24 26 19 18 28 30 32 39 43 46
50 51 51 47 46 47 45 41 40 37 36 37 31 29 24 22 18 15 14 13 11 9 10 12 12 12 13 15 19 19 23 29 31 31 31 25 14 15 21 28 36 42 44
Wind_Direction_850mb
152 144 156 99 96 67 47 43 38 30 23 18 15 13 10 7 6 5 0 2 14 31 22 24 24 23 24 24 23 25 35 41 44 40 31 23 14 13 356 348 338 338 331
154 153 155 133 111 61 36 30 26 28 22 20 17 14 11 7 6 3 3 7 36 40 35 33 29 26 27 26 30 38 36 38 33 30 30 21 14 5 6 7 3 353 348
162 162 152 149 122 50 24 27 24 25 15 16 17 16 14 10 8 4 5 21 41 46 44 35 30 27 27 26 31 44 47 46 36 37 36 21 23 33 14 2 353 347 343
177 159 153 149 110 47 10 19 26 25 15 14 13 12 14 12 12 10 14 26 50 52 48 43 34 31 35 45 52 51 51 42 38 44 31 23 35 41 16 2 6 1 353
147 152 152 136 115 356 23 14 22 24 14 14 10 10 9 12 13 20 31 48 63 58 50 44 41 46 52 55 56 57 54 42 35 39 30 24 33 40 17 4 358 352 347
139 148 146 145 82 6 11 13 13 19 15 16 10 8 10 13 22 41 46 62 64 57 52 51 50 51 55 58 55 57 53 36 26 36 27 30 34 32 20 11 2 357 351
156 164 166 162 33 7 355 2 11 10 17 12 7 5 11 18 32 51 66 68 67 64 58 48 48 49 56 58 61 61 47 34 30 33 39 37 36 29 18 16 14 13 13
174 166 166 177 337 342 344 356 12 9 12 8 5 4 9 26 48 67 75 74 68 66 64 50 59 54 53 53 55 51 47 36 36 48 49 43 37 27 25 22 20 22 23
173 166 186 254 328 324 320 351 4 8 9 1 1 359 10 33 63 83 87 81 73 68 61 61 59 56 53 53 48 46 46 42 52 61 52 51 41 34 29 30 29 29 30
167 168 182 303 293 303 328 355 356 1 3 355 358 356 357 16 23 49 73 88 82 72 68 65 64 61 52 52 51 57 64 56 59 55 57 52 43 44 40 41 38 38 42
181 193 241 298 298 318 351 345 353 3 4 350 355 357 4 13 10 20 28 73 96 81 73 70 70 70 58 58 61 63 64 64 65 66 61 55 54 55 45 47 48 49 47
194 200 233 294 317 307 354 352 360 3 354 354 352 356 356 358 357 353 17 70 122 95 83 78 77 85 66 63 65 66 70 69 72 73 68 65 60 55 50 50 48 48 51
197 204 225 291 284 309 351 353 351 356 349 348 349 349 350 353 359 354 6 89 129 102 99 95 89 89 76 73 72 69 79 75 73 77 75 65 67 62 51 49 47 51 49
204 210 223 253 258 263 300 329 333 345 339 342 344 348 351 2 19 30 54 96 116 109 104 104 94 93 91 83 80 79 80 76 73 75 77 67 60 53 52 57 52 50 46
211 212 221 237 270 272 287 298 312 326 331 337 342 338 344 4 27 46 43 60 114 119 113 113 105 104 100 90 85 84 80 80 80 78 75 61 54 55 66 59 54 65 46
220 224 225 229 247 271 279 285 299 314 319 328 334 328 358 32 44 49 50 48 82 125 125 129 122 116 108 97 93 84 80 81 74 64 59 55 52 56 56 64 57 66 49
229 232 230 234 238 254 271 281 285 295 303 316 320 331 17 53 57 60 56 46 61 80 123 144 139 131 121 111 102 88 83 83 73 68 53 44 43 49 52 54 57 59 52
226 228 231 233 240 249 255 272 277 279 286 298 297 326 51 70 74 72 68 52 48 80 100 148 152 141 133 126 111 99 97 101 97 74 60 50 44 49 52 53 56 62 54
228 225 224 231 240 244 254 262 270 266 271 286 274 272 153 134 125 167 207 359 1 146 145 136 160 151 146 141 128 112 106 115 108 79 63 49 49 51 54 57 57 60 61
228 222 220 227 233 240 245 252 262 260 269 267 251 248 248 241 273 283 301 304 273 208 198 149 162 160 158 149 134 113 110 115 109 89 64 55 50 52 54 55 57 55 56
219 215 209 220 225 234 238 241 254 268 275 268 245 241 226 228 247 264 263 269 239 187 185 164 161 169 163 161 149 115 100 109 111 92 66 50 46 49 53 57 58 57 52
221 211 207 213 219 232 239 245 252 254 257 250 244 246 242 256 263 263 257 236 207 151 150 143 147 169 168 172 162 150 110 96 104 91 60 46 46 52 58 58 61 60 55
217 212 210 212 214 224 231 237 240 242 249 252 242 242 245 251 256 254 236 225 186 148 151 143 139 173 176 186 192 184 171 153 120 96 91 71 60 58 59 58 58 56 53
217 214 213 214 218 223 229 233 238 243 259 250 242 247 247 248 250 244 238 229 193 161 163 152 152 165 175 200 204 214 218 183 164 143 124 88 67 60 55 56 53 53 50
220 220 218 219 221 224 230 239 232 236 234 238 241 243 245 249 246 233 226 212 198 183 174 157 152 158 171 183 173 158 163 176 179 165 158 128 90 71 57 59 58 55 53
224 223 223 221 222 225 231 231 228 226 230 236 243 238 244 247 237 226 221 214 209 196 180 160 157 159 157 158 155 152 148 162 179 176 162 153 133 96 61 54 56 52 47